Location: Bartlow
(52.0833°N, 0.3167°E)
Time: 11:33:31
(UTC+00:00)

Cosmos 2360 Rocket - Pass Details

Date: 26 September 2023
Orbit: 832 x 845 km, 71.0° (Epoch: 28 November)

Event Time Altitude Azimuth Distance (km) Brightness Sun altitude
Rises 04:10:41 0° 326° (NW) 3,414 5.2 -15.9°
Reaches altitude 10° 04:13:13 10° 320° (NW) 2,476 4.4 -15.5°
Maximum altitude 04:18:36 46° 249° (WSW) 1,126 2.4 -14.8°
Drops below altitude 10° 04:23:58 10° 178° (S) 2,462 4.5 -14.0°
Sets 04:26:29 0° 172° (S) 3,393 5.3 -13.6°
